Погода в Хвалынке

Россия / Приморский край     44°38′13″N   132°53′25″E
темп.,
°C
ветер,
м/с
пор.,
м/с
влажн.,
%
обл.,
%
осадки,
мм/ч
давл.,
гПа
погр.,
м
1 августа, вс
вс101:00+22вюв3680100 0.0 1004166
04:00+21вюв368515 0.0 1004165
07:00+22вюв38812 0.0 1004262
10:00+29юв345321 0.0 10051070
13:00+32юв334398 0.0 10042054
16:00+31вюв3451100 0.0 1003655
19:00+29юз1259100 0.0 1003156
22:00+24ю22710 0.0 100643
2 августа, пн
пн201:00+21вюв11860 0.0 100715
04:00+19вюв22880 0.0 100740
07:00+20вюв25845 0.0 1008138
10:00+27вюв445681 0.0 1008734
13:00+32вюв234366 0.0 10071623
16:00+31вюв224691 0.0 10061138
19:00+31вюв2448100 0.0 1005724
22:00+25ю386698 0.0 1007258
3 августа, вт
вт301:00+23ююз3776100 0.0 1008268
04:00+21ююз278822 0.0 1008230
07:00+21ююз258955 0.0 1009186
10:00+27ю226177 0.0 1008893
13:00+31вюв2246100 0.0 10071690
16:00+30ююв2255100 0.0 1006705
19:00+26юз4867100 0.0 1007445
22:00+23юз2483100 0.0 1008131
4 августа, ср
ср401:00+23ю128474 0.1 100743
04:00+22ююз119196 0.6 100713
07:00+22юв239648 0.8 100785
10:00+26ю258064 1.9 1006566
13:00+28зюз47756 1.9 1005798
16:00+32юз244752 3.5 10031484
19:00+29юв11589 0.0 100330
22:00+25ююв227490 0.0 100435
5 августа, чт
чт501:00+23ю2285100 0.6 100438
04:00+22в1188100 0.9 100311
07:00+22юв228997 0.0 100448
10:00+30ююз235583 0.0 1003870
13:00+35юз243770 0.0 10012424
16:00+30ссз235658 0.1 100082
19:00+23зсз3795100 2.4 1000174
22:00+22вюв3599100 9.7 1002153